SCP
0 0 0 0 0 0 0 0 0 0 0 0 0 0 0 0 0 0 0 0 0 0 0 0 0 0 -0 0 0 0 0 0 0 0 0 0 0 0 0 0 0 0 0 0 -0
0 0 0 0 0 0 0 0 0 0 0 0 0 0 0 0 0 0 0 0 0 0 0 0 0 0 0 0 0 0 0 0 0 0 0 0 0 0 0 0 0 0 0 0 -0
0 0 0 0 0 0 0 0 0 0 0 0 0 0 0 0 0 0 0 0 0 0 0 0 0 0 0 0 0 0 0 0 0 0 0 0 0 0 0 0 0 0 0 0 0
0 0 0 0 0 0 0 0 0 0 0 0 0 0 0 0 0 0 0 0 0 0 0 0 0 0 0 0 0 0 0 0 0 0 0 0 0 0 0 0 0 0 0 0 0
0 0 0 0 0 0 0 0 0 0 0 0 0 0 0 0 0 0 0 0 0 0 0 0 0 0 0 0 0 0 0 0 0 0 0 0 0 0 0 0 0 0 0 0 0
0 0 0 0 0 0 0 0 0 0 0 0 0 0 0 0 0 0 0 0 0 0 0 0 0 0 0 0 0 0 0 0 0 0 0 0 0 0 0 0 0 0 0 0 0
0 0 0 0 0 0 0 0 0 0 0 0 0 0 0 0 0 0 0 0 0 0 0 0 0 0 0 0 0 0 0 0 0 0 0 0 0 0 0 0 0 0 0 0 0
0 0 0 0 0 0 0 0 0 0 0 0 0 0 0 0 0 0 0 0 0 0 0 0 0 0 0 0 0 0 0 0 0 0 0 0 0 0 0 0 0 0 0 0 0
0 0 0 0 0 0 0 0 0 0 0 0 0 0 0 0 0 0 0 0 0 0 0 0 0 0 0 0 0 0 0 0 0 0 0 0 0 0 0 0 0 0 0 0 0
0 0 0 0 0 0 0 0 0 0 0 0 0 0 0 0 0 0 0 0 0 0 0 0 0 0 0 0 0 0 0 0 0 0 0 0 0 0 0 0 0 0 0 0 0
0 -0 0 0 0 0 0 0 0 0 0 0 0 0 0 0 0 0 0 0 0 0 0 0 0 0 0 0 0 0 0 0 0 0 0 0 0 0 0 0 0 0 0 0 0
-0 -0 -0 0 0 0 0 0 0 0 0 0 0 0 0 0 0 0 0 0 0 0 0 0 0 0 0 0 0 0 0 0 0 0 0 0 0 0 0 0 0 0 0 0 0
-0 0 -0 0 0 0 0 0 0 0 0 0 0 0 0 0 0 0 0 0 0 0 0 0 0 0 0 0 0 0 0 0 0 0 0 0 0 0 0 0 0 0 0 0 0
0 0 0 0 0 0 0 0 0 0 0 0 0 0 0 0 0 0 0 0 0 0 0 0 0 0 0 0 0 0 0 0 0 0 0 0 0 0 0 0 0 0 0 0 0
0 0 0 0 0 0 0 0 0 0 0 0 0 0 0 0 0 0 0 0 0 0 0 0 0 0 0 0 0 0 0 0 0 0 0 0 0 0 0 0 0 0 0 0 0
0 0 0 0 0 0 0 0 0 0 0 0 0 0 0 0 0 0 0 0 0 0 0 0 0 0 0 0 0 0 0 0 0 0 0 0 0 0 0 0 0 0 0 0 0
0 0 0 0 0 -0 0 0 0 0 0 0 0 0 0 0 0 0 0 0 0 0 0 0 0 0 0 0 0 0 0 0 0 0 0 0 0 0 0 0 0 0 0 0 0
0 0 0 -0 -0 0 0 0 0 0 0 0 0 0 0 0 0 0 0 0 0 0 0 0 0 0 0 0 0 0 0 0 0 0 0 0 0 0 0 0 0 0 0 0 0
0 0 0 -0 -0 0 0 0 0 0 0 0 0 0 0 0 0 0 0 0 0 0 0 0 0 0 0 0 0 0 0 0 0 0 0 0 0 0 0 0 0 0 0 0 0
0 0 0 0 0 0 0 0 0 0 0 0 0 0 0 0 0 0 0 0 0 0 0 0 0 0 0 0 0 0 0 0 0 0 0 0 0 0 0 0 0 0 0 0 0
0 0 0 0 0 0 0 0 0 0 0 0 0 0 0 0 0 0 0 0 0 0 0 -0 0 0 0 0 0 0 0 0 0 0 0 0 0 0 0 0 0 0 0 0 0
0 0 0 0 0 0 0 0 0 0 0 0 0 0 0 0 0 0 0 0 0 0 0 0 0 0 0 0 0 0 0 0 0 0 0 0 0 0 0 0 0 0 0 0 0
0 0 0 0 0 0 0 0 0 0 0 0 0 0 0 0 0 0 0 0 0 0 0 0 0 0 0 0 0 0 0 0 0 0 0 0 0 0 0 0 0 0 0 0 0
0 0 0 0 0 0 0 0 0 0 0 0 0 0 0 0 0 0 0 0 0 0 0 0 0 0 0 0 0 0 0 0 0 0 0 0 0 0 0 0 0 0 0 0 0
0 0 0 0 0 0 0 0 0 0 0 0 0 0 0 0 0 0 0 0 -0 0 0 0 0 0 0 0 -0 0 0 0 0 0 0 0 0 0 0 0 0 0 0 0 0
0 0 0 0 0 0 0 0 0 0 0 0 0 0 0 0 0 0 0 0 0 0 0 0 0 0 0 0 0 -0 0 0 0 0 0 0 0 0 0 0 0 0 0 0 0
0 0 0 0 0 0 0 0 0 0 0 0 0 0 0 0 0 0 0 0 0 0 0 0 0 -0 0 0 0 0 0 0 0 0 0 0 0 0 0 0 0 0 0 0 0
Wind_Speed_500mb
38 31 28 30 29 31 33 28 22 22 29 24 21 26 31 34 34 37 41 40 38 37 36 39 32 31 29 28 15 5 3 6 9 11 10 6 9 7 10 9 17 21 8 8 39
41 36 34 29 26 24 27 35 29 26 21 28 21 18 24 30 31 45 49 44 38 38 33 31 24 31 17 12 8 9 7 15 12 10 8 6 8 16 9 10 13 18 20 11 37
49 46 39 39 30 24 25 20 35 28 30 19 26 19 18 22 28 27 16 33 40 39 34 25 22 13 18 22 14 9 13 10 9 23 8 5 5 8 13 6 21 38 35 23 38
39 39 41 35 36 30 28 25 21 30 27 25 20 18 18 17 8 4 10 6 15 28 31 28 25 16 13 17 30 8 26 12 9 20 13 9 5 6 19 12 26 34 29 32 36
44 42 42 40 34 35 35 30 25 29 24 20 21 20 17 19 32 12 3 1 4 1 9 17 23 15 11 13 25 9 9 13 27 14 20 10 12 10 22 28 15 20 34 40 42
35 35 37 41 40 34 34 35 30 23 30 22 20 25 26 21 28 36 37 24 21 12 4 9 8 14 8 8 16 10 21 10 11 22 11 10 6 8 25 32 35 31 28 43 49
41 36 36 33 36 37 34 35 36 34 25 29 24 27 38 38 20 16 13 23 32 25 18 14 13 12 8 4 15 5 8 6 13 13 8 15 9 17 52 14 24 44 40 39 52
30 36 30 35 35 33 36 30 35 36 31 33 28 28 25 32 47 42 17 13 17 21 23 17 12 16 9 5 3 7 3 8 3 19 9 20 18 19 42 45 45 33 39 44 50
31 29 30 35 33 34 34 35 32 38 33 27 30 25 19 17 44 43 43 42 18 15 18 14 15 11 9 8 3 6 6 8 9 25 9 14 12 9 16 25 45 47 37 36 46
27 38 32 27 29 31 33 33 26 34 30 24 29 8 30 10 28 24 36 38 29 16 17 18 12 5 3 9 16 11 8 6 9 5 5 9 19 14 8 7 20 27 42 46 41
35 34 35 28 27 25 27 27 21 16 35 23 17 16 5 24 14 19 24 36 37 15 12 21 8 17 15 6 5 7 6 8 5 4 3 11 12 30 27 23 21 23 32 36 46
35 32 34 29 25 25 25 40 32 9 10 57 28 32 18 6 4 19 23 31 22 17 13 7 30 11 12 11 9 6 7 8 6 2 7 7 16 25 12 19 44 52 44 38 34
34 35 33 31 34 35 34 48 36 33 7 18 70 35 13 31 7 19 32 28 12 15 26 14 7 21 18 10 12 7 11 7 5 5 2 7 12 15 10 17 35 42 51 56 57
32 33 32 28 32 39 49 41 49 54 6 9 28 25 31 23 12 33 35 28 11 29 11 13 10 12 9 13 14 15 11 7 1 6 8 3 10 11 7 11 10 36 49 58 61
30 31 28 27 25 33 35 38 50 36 8 10 14 13 30 30 4 26 38 38 16 13 15 10 14 15 8 11 14 12 14 17 11 7 3 3 3 13 7 9 15 19 26 29 32
27 28 23 27 32 43 33 32 53 11 11 9 15 23 21 26 28 5 24 26 7 10 8 9 4 10 16 9 21 12 13 12 7 5 7 13 13 7 8 5 9 5 23 28 16
30 23 24 22 30 29 34 54 10 8 7 12 11 19 12 13 22 8 15 21 13 12 18 5 7 4 7 12 7 6 14 3 4 2 11 4 7 13 9 10 7 15 21 18 7
26 20 21 18 13 21 64 12 6 6 10 6 11 22 20 12 15 11 9 21 21 4 6 16 12 16 7 12 14 16 13 11 15 10 6 1 12 7 8 8 15 21 21 26 30
24 17 13 13 8 14 4 6 6 10 9 12 13 10 6 6 8 17 13 11 15 17 8 11 10 5 11 10 19 14 15 9 10 3 5 8 9 2 7 13 22 28 35 38 39
28 17 12 14 16 33 3 9 7 3 5 9 9 6 11 8 6 14 17 2 10 16 13 4 6 9 17 4 15 15 17 6 2 9 8 6 5 6 2 9 12 18 29 32 35
30 13 11 18 12 5 4 2 6 4 5 6 10 7 10 7 6 7 10 4 5 4 23 8 2 0 11 15 21 11 11 7 7 8 9 5 7 6 6 4 7 15 24 28 37
28 5 18 19 5 5 4 6 4 1 11 7 7 8 9 6 6 7 3 8 13 5 13 11 5 4 12 11 9 28 19 13 12 10 4 5 5 5 10 10 16 19 23 33 37
22 11 11 20 5 2 3 6 5 7 6 5 5 6 4 8 10 5 2 9 13 4 5 5 3 4 10 7 7 16 25 25 2 3 13 10 8 10 5 14 16 21 25 29 32
14 6 4 7 9 9 8 1 6 6 4 8 8 9 6 6 8 8 3 7 10 7 13 3 5 10 13 2 5 8 14 15 31 8 8 10 10 13 12 16 20 21 22 24 25
8 2 6 6 3 5 6 5 7 4 6 3 7 6 8 6 6 7 5 5 4 7 1 5 3 2 6 5 5 3 7 9 19 22 11 4 16 28 18 11 22 30 24 20 19
13 12 14 7 23 10 8 4 5 3 4 7 9 6 3 10 8 14 11 3 2 4 5 5 6 6 7 4 5 8 7 5 1 2 7 4 5 6 10 20 25 29 28 24 20
22 28 13 7 4 7 4 7 7 7 6 10 14 9 6 8 14 22 18 16 5 6 5 4 8 3 5 6 1 9 12 14 9 8 11 13 16 19 23 30 26 26 25 22 20
Wind_Direction_500mb
274 269 273 281 271 267 253 260 266 264 256 265 273 260 257 269 273 277 270 260 259 254 254 245 262 266 269 298 268 208 65 209 225 168 248 189 195 177 189 170 179 191 174 166 174
275 270 267 266 272 260 266 252 259 267 267 254 271 273 261 272 283 277 268 263 257 258 258 256 254 247 227 304 249 184 172 221 205 196 227 218 206 175 168 178 201 203 208 186 179
270 271 276 261 261 260 250 264 251 261 261 271 257 277 273 277 298 287 286 261 247 248 250 254 255 221 197 231 231 211 212 210 239 219 207 207 261 204 160 226 211 214 211 196 183
273 275 269 273 256 260 254 253 251 244 259 253 253 260 257 254 249 44 37 13 209 238 248 253 238 187 158 167 244 235 254 213 250 217 185 191 198 225 211 211 224 227 226 213 200
271 271 269 269 269 266 263 261 254 240 251 258 239 239 240 225 235 216 97 37 330 214 210 214 203 187 171 184 197 233 254 230 240 237 208 200 215 221 243 230 214 213 217 219 220
283 271 268 266 266 266 269 268 256 251 234 256 251 236 239 234 251 242 250 254 267 266 228 215 234 220 221 231 175 213 245 247 244 231 221 203 247 180 254 241 236 231 224 221 224
275 283 274 265 263 258 263 264 257 247 227 240 259 251 246 236 249 229 254 248 252 251 255 241 240 213 196 257 248 239 273 270 221 199 225 198 256 222 241 213 226 236 235 230 224
280 271 279 268 266 264 249 259 253 250 239 236 239 249 247 253 244 241 253 235 238 237 242 235 223 233 219 289 63 201 173 224 261 158 212 165 256 249 248 240 239 232 232 226 225
292 290 283 276 271 267 256 245 251 246 244 237 241 240 262 233 241 247 241 243 256 247 229 219 218 211 175 118 26 350 204 201 294 201 147 182 253 248 250 222 240 236 235 234 229
300 293 294 292 276 265 262 239 247 244 229 232 225 241 242 202 233 245 234 236 221 216 187 193 191 175 103 154 207 191 191 208 229 248 209 191 252 255 308 234 254 252 232 233 235
301 299 294 285 270 253 268 232 221 216 215 202 185 198 42 200 209 226 227 205 211 220 182 189 168 214 198 218 149 150 185 185 219 328 225 252 256 265 257 259 269 255 245 237 239
271 288 290 280 268 259 246 227 217 189 213 217 213 217 205 127 236 205 197 183 187 204 144 156 226 187 180 197 197 153 184 222 282 75 173 283 263 262 241 242 244 246 249 250 250
253 274 280 268 259 257 244 238 235 213 242 213 213 212 199 218 258 213 191 191 181 203 189 197 173 175 170 175 185 195 177 175 203 324 163 322 275 249 256 249 250 247 248 253 253
251 261 261 263 267 252 260 252 231 204 234 216 183 226 198 176 240 222 203 185 219 207 180 228 183 145 168 197 153 219 179 169 195 43 238 27 281 291 308 291 264 254 245 244 247
249 256 272 241 243 245 250 242 211 177 218 145 157 170 194 177 188 204 208 201 196 183 182 201 168 172 172 189 168 217 158 186 192 187 19 235 316 269 345 298 258 264 269 269 264
242 256 259 253 246 249 241 216 186 200 194 221 155 170 153 185 194 244 201 198 199 186 241 220 225 193 184 156 175 141 95 60 62 114 256 205 174 263 214 241 321 0 327 320 292
240 251 250 245 250 253 236 182 194 220 94 178 162 174 162 169 197 185 173 188 190 185 207 174 202 244 153 116 119 172 143 47 20 343 231 215 167 246 287 300 287 320 354 16 37
237 242 249 255 280 229 159 159 163 109 209 215 133 149 183 143 208 197 142 200 215 197 146 190 200 191 196 177 164 183 180 164 183 195 196 181 226 237 322 42 54 63 62 78 85
224 222 227 225 216 212 254 87 141 172 185 147 96 113 179 170 165 171 211 199 209 175 198 170 242 143 187 169 150 184 215 167 109 60 78 207 286 343 14 31 31 46 61 68 83
200 200 205 202 209 193 86 105 125 226 130 71 94 158 155 174 117 155 173 202 195 179 166 275 227 192 194 159 202 170 159 190 45 151 229 261 275 199 64 30 17 43 55 69 81
180 157 184 179 177 135 97 65 116 85 136 130 154 136 110 143 152 184 202 94 24 308 174 167 200 36 117 209 183 183 184 189 128 159 170 150 247 227 131 71 94 66 73 81 89
155 74 145 175 96 33 119 135 41 33 84 98 122 108 117 141 73 55 219 59 353 261 181 200 154 173 219 315 280 206 206 205 200 215 233 139 243 82 108 114 120 101 100 103 103
121 101 159 172 110 24 74 75 42 24 12 86 86 61 159 142 114 82 32 41 1 55 154 191 267 28 329 317 285 206 198 198 171 20 196 161 216 171 130 116 118 120 117 115 114
125 110 105 102 118 139 135 5 85 31 54 85 108 94 127 60 16 119 90 161 203 48 45 349 122 169 219 170 279 174 192 197 209 250 152 219 147 188 188 164 148 139 132 125 121
108 165 143 148 160 113 43 101 101 48 40 350 41 130 151 110 70 115 178 175 117 123 39 164 66 166 189 190 342 293 173 204 202 212 191 137 178 198 185 190 160 154 144 138 133
124 136 91 82 129 118 27 35 115 332 51 313 124 96 105 140 174 185 139 46 137 8 112 338 145 136 313 324 186 184 249 188 137 146 117 194 285 187 129 134 178 180 170 166 163
121 128 113 26 85 90 160 159 155 146 49 39 122 99 33 122 93 107 101 108 124 145 137 114 123 140 210 304 4 328 222 186 186 199 153 178 213 150 190 212 184 201 194 174 174
Wind_Speed_850mb
38 31 28 30 29 31 33 28 22 22 29 24 21 26 31 34 34 37 41 40 38 37 36 39 32 31 29 28 15 5 3 6 9 11 10 6 9 7 10 9 17 21 8 8 39
41 36 34 29 26 24 27 35 29 26 21 28 21 18 24 30 31 45 49 44 38 38 33 31 24 31 17 12 8 9 7 15 12 10 8 6 8 16 9 10 13 18 20 11 37
49 46 39 39 30 24 25 20 35 28 30 19 26 19 18 22 28 27 16 33 40 39 34 25 22 13 18 22 14 9 13 10 9 23 8 5 5 8 13 6 21 38 35 23 38
39 39 41 35 36 30 28 25 21 30 27 25 20 18 18 17 8 4 10 6 15 28 31 28 25 16 13 17 30 8 26 12 9 20 13 9 5 6 19 12 26 34 29 32 36
44 42 42 40 34 35 35 30 25 29 24 20 21 20 17 19 32 12 3 1 4 1 9 17 23 15 11 13 25 9 9 13 27 14 20 10 12 10 22 28 15 20 34 40 42
35 35 37 41 40 34 34 35 30 23 30 22 20 25 26 21 28 36 37 24 21 12 4 9 8 14 8 8 16 10 21 10 11 22 11 10 6 8 25 32 35 31 28 43 49
41 36 36 33 36 37 34 35 36 34 25 29 24 27 38 38 20 16 13 23 32 25 18 14 13 12 8 4 15 5 8 6 13 13 8 15 9 17 52 14 24 44 40 39 52
30 36 30 35 35 33 36 30 35 36 31 33 28 28 25 32 47 42 17 13 17 21 23 17 12 16 9 5 3 7 3 8 3 19 9 20 18 19 42 45 45 33 39 44 50
31 29 30 35 33 34 34 35 32 38 33 27 30 25 19 17 44 43 43 42 18 15 18 14 15 11 9 8 3 6 6 8 9 25 9 14 12 9 16 25 45 47 37 36 46
27 38 32 27 29 31 33 33 26 34 30 24 29 8 30 10 28 24 36 38 29 16 17 18 12 5 3 9 16 11 8 6 9 5 5 9 19 14 8 7 20 27 42 46 41
35 34 35 28 27 25 27 27 21 16 35 23 17 16 5 24 14 19 24 36 37 15 12 21 8 17 15 6 5 7 6 8 5 4 3 11 12 30 27 23 21 23 32 36 46
35 32 34 29 25 25 25 40 32 9 10 57 28 32 18 6 4 19 23 31 22 17 13 7 30 11 12 11 9 6 7 8 6 2 7 7 16 25 12 19 44 52 44 38 34
34 35 33 31 34 35 34 48 36 33 7 18 70 35 13 31 7 19 32 28 12 15 26 14 7 21 18 10 12 7 11 7 5 5 2 7 12 15 10 17 35 42 51 56 57
32 33 32 28 32 39 49 41 49 54 6 9 28 25 31 23 12 33 35 28 11 29 11 13 10 12 9 13 14 15 11 7 1 6 8 3 10 11 7 11 10 36 49 58 61
30 31 28 27 25 33 35 38 50 36 8 10 14 13 30 30 4 26 38 38 16 13 15 10 14 15 8 11 14 12 14 17 11 7 3 3 3 13 7 9 15 19 26 29 32
27 28 23 27 32 43 33 32 53 11 11 9 15 23 21 26 28 5 24 26 7 10 8 9 4 10 16 9 21 12 13 12 7 5 7 13 13 7 8 5 9 5 23 28 16
30 23 24 22 30 29 34 54 10 8 7 12 11 19 12 13 22 8 15 21 13 12 18 5 7 4 7 12 7 6 14 3 4 2 11 4 7 13 9 10 7 15 21 18 7
26 20 21 18 13 21 64 12 6 6 10 6 11 22 20 12 15 11 9 21 21 4 6 16 12 16 7 12 14 16 13 11 15 10 6 1 12 7 8 8 15 21 21 26 30
24 17 13 13 8 14 4 6 6 10 9 12 13 10 6 6 8 17 13 11 15 17 8 11 10 5 11 10 19 14 15 9 10 3 5 8 9 2 7 13 22 28 35 38 39
28 17 12 14 16 33 3 9 7 3 5 9 9 6 11 8 6 14 17 2 10 16 13 4 6 9 17 4 15 15 17 6 2 9 8 6 5 6 2 9 12 18 29 32 35
30 13 11 18 12 5 4 2 6 4 5 6 10 7 10 7 6 7 10 4 5 4 23 8 2 0 11 15 21 11 11 7 7 8 9 5 7 6 6 4 7 15 24 28 37
28 5 18 19 5 5 4 6 4 1 11 7 7 8 9 6 6 7 3 8 13 5 13 11 5 4 12 11 9 28 19 13 12 10 4 5 5 5 10 10 16 19 23 33 37
22 11 11 20 5 2 3 6 5 7 6 5 5 6 4 8 10 5 2 9 13 4 5 5 3 4 10 7 7 16 25 25 2 3 13 10 8 10 5 14 16 21 25 29 32
14 6 4 7 9 9 8 1 6 6 4 8 8 9 6 6 8 8 3 7 10 7 13 3 5 10 13 2 5 8 14 15 31 8 8 10 10 13 12 16 20 21 22 24 25
8 2 6 6 3 5 6 5 7 4 6 3 7 6 8 6 6 7 5 5 4 7 1 5 3 2 6 5 5 3 7 9 19 22 11 4 16 28 18 11 22 30 24 20 19
13 12 14 7 23 10 8 4 5 3 4 7 9 6 3 10 8 14 11 3 2 4 5 5 6 6 7 4 5 8 7 5 1 2 7 4 5 6 10 20 25 29 28 24 20
22 28 13 7 4 7 4 7 7 7 6 10 14 9 6 8 14 22 18 16 5 6 5 4 8 3 5 6 1 9 12 14 9 8 11 13 16 19 23 30 26 26 25 22 20
Wind_Direction_850mb
274 269 273 281 271 267 253 260 266 264 256 265 273 260 257 269 273 277 270 260 259 254 254 245 262 266 269 298 268 208 65 209 225 168 248 189 195 177 189 170 179 191 174 166 174
275 270 267 266 272 260 266 252 259 267 267 254 271 273 261 272 283 277 268 263 257 258 258 256 254 247 227 304 249 184 172 221 205 196 227 218 206 175 168 178 201 203 208 186 179
270 271 276 261 261 260 250 264 251 261 261 271 257 277 273 277 298 287 286 261 247 248 250 254 255 221 197 231 231 211 212 210 239 219 207 207 261 204 160 226 211 214 211 196 183
273 275 269 273 256 260 254 253 251 244 259 253 253 260 257 254 249 44 37 13 209 238 248 253 238 187 158 167 244 235 254 213 250 217 185 191 198 225 211 211 224 227 226 213 200
271 271 269 269 269 266 263 261 254 240 251 258 239 239 240 225 235 216 97 37 330 214 210 214 203 187 171 184 197 233 254 230 240 237 208 200 215 221 243 230 214 213 217 219 220
283 271 268 266 266 266 269 268 256 251 234 256 251 236 239 234 251 242 250 254 267 266 228 215 234 220 221 231 175 213 245 247 244 231 221 203 247 180 254 241 236 231 224 221 224
275 283 274 265 263 258 263 264 257 247 227 240 259 251 246 236 249 229 254 248 252 251 255 241 240 213 196 257 248 239 273 270 221 199 225 198 256 222 241 213 226 236 235 230 224
280 271 279 268 266 264 249 259 253 250 239 236 239 249 247 253 244 241 253 235 238 237 242 235 223 233 219 289 63 201 173 224 261 158 212 165 256 249 248 240 239 232 232 226 225
292 290 283 276 271 267 256 245 251 246 244 237 241 240 262 233 241 247 241 243 256 247 229 219 218 211 175 118 26 350 204 201 294 201 147 182 253 248 250 222 240 236 235 234 229
300 293 294 292 276 265 262 239 247 244 229 232 225 241 242 202 233 245 234 236 221 216 187 193 191 175 103 154 207 191 191 208 229 248 209 191 252 255 308 234 254 252 232 233 235
301 299 294 285 270 253 268 232 221 216 215 202 185 198 42 200 209 226 227 205 211 220 182 189 168 214 198 218 149 150 185 185 219 328 225 252 256 265 257 259 269 255 245 237 239
271 288 290 280 268 259 246 227 217 189 213 217 213 217 205 127 236 205 197 183 187 204 144 156 226 187 180 197 197 153 184 222 282 75 173 283 263 262 241 242 244 246 249 250 250
253 274 280 268 259 257 244 238 235 213 242 213 213 212 199 218 258 213 191 191 181 203 189 197 173 175 170 175 185 195 177 175 203 324 163 322 275 249 256 249 250 247 248 253 253
251 261 261 263 267 252 260 252 231 204 234 216 183 226 198 176 240 222 203 185 219 207 180 228 183 145 168 197 153 219 179 169 195 43 238 27 281 291 308 291 264 254 245 244 247
249 256 272 241 243 245 250 242 211 177 218 145 157 170 194 177 188 204 208 201 196 183 182 201 168 172 172 189 168 217 158 186 192 187 19 235 316 269 345 298 258 264 269 269 264
242 256 259 253 246 249 241 216 186 200 194 221 155 170 153 185 194 244 201 198 199 186 241 220 225 193 184 156 175 141 95 60 62 114 256 205 174 263 214 241 321 0 327 320 292
240 251 250 245 250 253 236 182 194 220 94 178 162 174 162 169 197 185 173 188 190 185 207 174 202 244 153 116 119 172 143 47 20 343 231 215 167 246 287 300 287 320 354 16 37
237 242 249 255 280 229 159 159 163 109 209 215 133 149 183 143 208 197 142 200 215 197 146 190 200 191 196 177 164 183 180 164 183 195 196 181 226 237 322 42 54 63 62 78 85
224 222 227 225 216 212 254 87 141 172 185 147 96 113 179 170 165 171 211 199 209 175 198 170 242 143 187 169 150 184 215 167 109 60 78 207 286 343 14 31 31 46 61 68 83
200 200 205 202 209 193 86 105 125 226 130 71 94 158 155 174 117 155 173 202 195 179 166 275 227 192 194 159 202 170 159 190 45 151 229 261 275 199 64 30 17 43 55 69 81
180 157 184 179 177 135 97 65 116 85 136 130 154 136 110 143 152 184 202 94 24 308 174 167 200 36 117 209 183 183 184 189 128 159 170 150 247 227 131 71 94 66 73 81 89
155 74 145 175 96 33 119 135 41 33 84 98 122 108 117 141 73 55 219 59 353 261 181 200 154 173 219 315 280 206 206 205 200 215 233 139 243 82 108 114 120 101 100 103 103
121 101 159 172 110 24 74 75 42 24 12 86 86 61 159 142 114 82 32 41 1 55 154 191 267 28 329 317 285 206 198 198 171 20 196 161 216 171 130 116 118 120 117 115 114
125 110 105 102 118 139 135 5 85 31 54 85 108 94 127 60 16 119 90 161 203 48 45 349 122 169 219 170 279 174 192 197 209 250 152 219 147 188 188 164 148 139 132 125 121
108 165 143 148 160 113 43 101 101 48 40 350 41 130 151 110 70 115 178 175 117 123 39 164 66 166 189 190 342 293 173 204 202 212 191 137 178 198 185 190 160 154 144 138 133
124 136 91 82 129 118 27 35 115 332 51 313 124 96 105 140 174 185 139 46 137 8 112 338 145 136 313 324 186 184 249 188 137 146 117 194 285 187 129 134 178 180 170 166 163
121 128 113 26 85 90 160 159 155 146 49 39 122 99 33 122 93 107 101 108 124 145 137 114 123 140 210 304 4 328 222 186 186 199 153 178 213 150 190 212 184 201 194 174 174